Location: ????????
(48.4751°N, 37.6926°E)
Time: 12:53:49
(UTC+00:00)

USA 281 - Pass Details

Date: 20 January 2021
Orbit: 1072 x 1086 km, 106.0° (Epoch: 22 February)

Event Time Altitude Azimuth Distance (km) Brightness Sun altitude
Exits shadow 17:56:33 32° 344° (NNW) 1,770 4.4 -37.2°
Drops below altitude 10° 17:59:53 10° 338° (NNW) 2,941 5.8 -37.7°
Sets 18:02:24 0° 336° (NNW) 3,900 6.6 -38.1°
